Location: Columbia
(38.9520°N, 92.3340°W)
Time: 13:16:05
(UTC-05:00)

CZ-2C R/B - Visible Passes

Search period start: 23 July 2014 00:00
Search period end: 02 August 2014 00:00
Orbit: 704 x 911 km, 98.1° (Epoch: 22 July)

Date Brightness Start Highest point End Pass type
(mag) Time Alt. Az. Time Alt. Az. Time Alt. Az.
23 Jul 4.0 03:55:31 10° SE 04:00:32 48° ENE 04:05:20 10° N visible
24 Jul 4.9 03:31:48 10° SE 03:36:11 28° ENE 03:40:24 10° N visible
24 Jul 3.8 05:11:21 10° SSW 05:15:59 31° W 05:20:26 10° NW visible
25 Jul 5.6 03:08:41 10° ESE 03:11:55 17° ENE 03:15:05 10° NNE visible
25 Jul 3.1 04:46:19 10° S 04:51:26 54° W 04:56:18 10° NNW visible
26 Jul 3.0 04:21:44 10° SSE 04:26:56 87° ENE 04:31:53 10° NNW visible
27 Jul 3.8 03:57:33 10° SSE 04:02:30 50° ENE 04:07:15 10° N visible
28 Jul 4.8 03:33:47 10° SE 03:38:08 30° ENE 03:42:21 10° N visible
28 Jul 3.8 05:13:33 10° SSW 05:17:58 29° W 05:22:14 10° NW visible
29 Jul 5.5 03:10:34 10° ESE 03:13:51 18° ENE 03:17:04 10° NNE visible
29 Jul 3.1 04:48:27 10° S 04:53:24 50° W 04:58:09 10° NNW visible
30 Jul 6.0 02:49:12 10° ENE 02:49:40 10° ENE 02:50:07 10° NE visible
30 Jul 2.9 04:23:48 10° SSE 04:28:54 88° WSW 04:33:47 10° NNW visible
31 Jul 3.6 03:59:33 10° SSE 04:04:27 53° ENE 04:09:09 10° N visible
01 Aug 4.6 03:35:44 10° SE 03:40:05 31° ENE 03:44:17 10° N visible
01 Aug 3.9 05:15:45 10° SSW 05:19:57 26° W 05:24:02 10° NW visible
